Lone Rock, WI

11:40 PM CDT on May 29, 2017 (GMT -0500)
Tri-County Regional

Weather History for KLNR - December, 2013

Change the Weather History Date:

Sunday, December 8, 2013

  Actual Average Record
Temperature  
Mean Temperature 13 °F -  
Max Temperature 17 °F 35 °F 48 °F (1999)
Min Temperature 9 °F 20 °F -9 °F (2005)
Degree Days  
Heating Degree Days 52    
Moisture  
Dew Point 8 °F    
Average Humidity 74    
Maximum Humidity 84    
Minimum Humidity 56    
Precipitation  
Precipitation 0.03 in - - ()
Sea Level Pressure  
Sea Level Pressure 30.24 in    
Wind  
Wind Speed 6 mph (ENE)    
Max Wind Speed 13 mph    
Max Gust Speed -    
Visibility 3 miles    
Events Snow    
Averages and records for this station are not official NWS values.
T = Trace of Precipitation, MM = Missing Value Source: NWS Daily Summary

Daily Weather History Graph

Daily Weather History Graph

Search for Another Location

Airport or City:

Trip Planner

Search our weather history database for the weather conditions in past years. The results will help you decide how hot, cold, wet, or windy it might be!

Date:

Astronomy

Dec. 08, 2013 Rise Set
Actual Time 7:20 AM CST 4:25 PM CST
Civil Twilight 6:47 AM CST 4:57 PM CST
Nautical Twilight 6:12 AM CST 5:33 PM CST
Astronomical Twilight 5:37 AM CST 6:07 PM CST
Moon 11:33 AM CST (12/8) 11:23 PM CST (12/8)
Length of Visible Light 10h 09m
Length of Day
9h 05m
Waxing Crescent, 40% of the Moon is Illuminated
Dec 8
Waxing Crescent
Dec 9
First Quarter
Dec 17
Full
Dec 25
Last Quarter
Jan 1
New

Hourly Weather History & Observations

Time (CST) Temp. Windchill Dew Point Humidity Pressure Visibility Wind Dir Wind Speed Gust Speed Precip Events Conditions
12:56 AM 9.0 °F - 1.0 °F 70% 30.62 in 10.0 mi Calm Calm - N/A   Overcast
1:56 AM 10.0 °F 3.6 °F -0.0 °F 64% 30.58 in 10.0 mi East 3.5 mph - N/A   Mostly Cloudy
2:56 AM 10.9 °F 4.7 °F -0.9 °F 59% 30.56 in 10.0 mi East 3.5 mph - N/A   Overcast
3:56 AM 10.9 °F -0.8 °F -0.9 °F 59% 30.52 in 10.0 mi ENE 8.1 mph - N/A   Overcast
4:56 AM 10.9 °F 0.2 °F -0.0 °F 61% 30.51 in 10.0 mi ENE 6.9 mph - N/A   Overcast
5:56 AM 10.9 °F -0.8 °F 1.0 °F 64% 30.49 in 10.0 mi East 8.1 mph - N/A   Overcast
6:56 AM 12.0 °F -0.4 °F -0.0 °F 59% 30.46 in 10.0 mi East 9.2 mph - N/A   Overcast
7:56 AM 12.0 °F -2.0 °F -0.0 °F 59% 30.43 in 10.0 mi ENE 11.5 mph - N/A   Overcast
8:56 AM 12.0 °F -0.4 °F -0.9 °F 56% 30.43 in 10.0 mi East 9.2 mph - N/A   Overcast
9:15 AM 12.9 °F -0.2 °F 1.9 °F 62% 30.38 in 2.5 mi East 10.4 mph - 0.00 in Snow Light Snow
9:56 AM 12.9 °F -0.2 °F 3.9 °F 67% 30.41 in 3.0 mi ENE 10.4 mph - 0.00 in Snow Light Snow
10:56 AM 14.0 °F 1.2 °F 6.1 °F 71% 30.37 in 3.0 mi East 10.4 mph - 0.00 in Snow Light Snow
11:01 AM 14.0 °F 2.0 °F 6.1 °F 71% 30.33 in 1.8 mi East 9.2 mph - 0.00 in Snow Light Snow
11:10 AM 15.1 °F 1.1 °F 7.0 °F 70% 30.32 in 1.0 mi ENE 12.7 mph - 0.00 in Snow Light Snow
11:26 AM 14.0 °F 2.0 °F 7.0 °F 74% 30.31 in 2.0 mi ENE 9.2 mph - 0.00 in Snow Light Snow
11:37 AM 15.1 °F 3.3 °F 8.1 °F 74% 30.29 in 1.8 mi East 9.2 mph - 0.00 in Snow Light Snow
11:56 AM 15.1 °F 3.3 °F 8.1 °F 74% 30.31 in 2.0 mi NE 9.2 mph - 0.00 in Snow Light Snow
12:07 PM 15.1 °F 3.3 °F 8.1 °F 74% 30.27 in 1.2 mi ENE 9.2 mph - 0.00 in Snow Light Snow
12:24 PM 15.1 °F 4.2 °F 9.0 °F 77% 30.26 in 0.8 mi ENE 8.1 mph - 0.00 in Snow Light Snow
12:36 PM 16.0 °F 5.3 °F 10.0 °F 77% 30.25 in 1.0 mi ENE 8.1 mph - 0.00 in Snow Light Snow
12:56 PM 16.0 °F 5.3 °F 9.0 °F 74% 30.26 in 0.8 mi East 8.1 mph - 0.00 in Snow Light Snow
1:47 PM 16.0 °F 5.3 °F 10.0 °F 77% 30.18 in 1.0 mi ENE 8.1 mph - 0.00 in Snow Light Snow
1:56 PM 16.0 °F 4.4 °F 10.0 °F 77% 30.21 in 1.2 mi ENE 9.2 mph - 0.00 in Snow Light Snow
2:29 PM 17.1 °F 5.8 °F 10.9 °F 77% 30.15 in 0.8 mi ENE 9.2 mph - 0.00 in Snow Light Snow
2:36 PM 17.1 °F 6.6 °F 10.9 °F 77% 30.15 in 1.2 mi ENE 8.1 mph - 0.00 in Snow Light Snow
2:56 PM 17.1 °F 7.6 °F 10.9 °F 77% 30.17 in 1.2 mi ENE 6.9 mph - 0.00 in Snow Light Snow
3:17 PM 17.1 °F 5.8 °F 10.9 °F 77% 30.14 in 0.8 mi ENE 9.2 mph - 0.00 in Snow Light Snow
3:56 PM 17.1 °F 5.8 °F 12.0 °F 81% 30.15 in 1.0 mi ENE 9.2 mph - 0.00 in Snow Light Snow
4:16 PM 17.1 °F 6.6 °F 12.0 °F 81% 30.10 in 0.8 mi ENE 8.1 mph - 0.00 in Snow Light Snow
4:30 PM 17.1 °F 8.7 °F 12.0 °F 81% 30.10 in 1.0 mi NE 5.8 mph - 0.01 in Snow Light Snow
4:45 PM 17.1 °F 7.6 °F 12.0 °F 81% 30.09 in 1.5 mi ENE 6.9 mph - 0.01 in Snow Light Snow
4:56 PM 17.1 °F 7.6 °F 12.0 °F 81% 30.12 in 1.8 mi ENE 6.9 mph - 0.01 in Snow Light Snow
5:04 PM 17.1 °F 6.6 °F 12.0 °F 81% 30.09 in 1.8 mi ENE 8.1 mph - 0.00 in Snow Light Snow
5:56 PM 17.1 °F 10.0 °F 12.9 °F 84% 30.09 in 1.2 mi ENE 4.6 mph - 0.00 in Snow Light Snow
6:56 PM 17.1 °F 11.7 °F 12.9 °F 84% 30.09 in 1.2 mi NNE 3.5 mph - 0.02 in Snow Light Snow
7:56 PM 17.1 °F 11.7 °F 12.0 °F 81% 30.07 in 2.0 mi North 3.5 mph - 0.00 in Snow Light Snow
8:16 PM 16.0 °F 10.4 °F 12.0 °F 84% 30.03 in 3.0 mi NNE 3.5 mph - 0.00 in Snow Light Snow
8:56 PM 15.1 °F 7.7 °F 10.9 °F 84% 30.04 in 3.0 mi North 4.6 mph - 0.00 in Snow Light Snow
9:56 PM 16.0 °F 10.4 °F 10.9 °F 81% 30.03 in 2.5 mi North 3.5 mph - 0.00 in Snow Light Snow
10:37 PM 16.0 °F 8.8 °F 10.9 °F 81% 30.00 in 3.0 mi NNW 4.6 mph - 0.00 in Snow Light Snow
10:56 PM 16.0 °F 10.4 °F 10.9 °F 81% 30.02 in 3.0 mi NW 3.5 mph - 0.00 in Snow Light Snow
11:48 PM 15.1 °F 9.4 °F 10.9 °F 84% 29.97 in 2.5 mi NW 3.5 mph - 0.00 in Snow Light Snow
11:56 PM 16.0 °F 8.8 °F 10.9 °F 81% 30.00 in 1.8 mi NNW 4.6 mph - 0.00 in Snow Light Snow